[[{"header":{"parameterUnit":"m.s-1","parameterCategory":1,"la1":30.2991,"la2":30.254,"lo1":-89.0895,"lo2":-89.0444,"dy":0.0017,"dx":0.0017,"nx":28,"ny":28,"refTime":"2025-12-29T09:00:00:Z","depth":0,"parameterNumber":2,"parameterNumberName":"U-component_of_WINDS"},"data":[0,0,0,0,0,0,0,0,0,0,0,0,0,0,0,0,0,0,0,0,0,0,0,0,0,0,0,0,0,0,0,0,0,0,0,0,0,0,0,0,0,0,0,0,0,0,0,0,0,0,0,0,0,0,0,0,0,0,1.7967,1.7967,0,1.7977,1.7977,1.7977,1.7967,1.7967,1.7967,1.7966,1.7976,1.7976,1.7977,0,0,0,0,0,0,0,0,0,0,0,0,0,1.794,1.7941,1.7967,1.7967,1.7967,1.7977,1.7977,1.7977,1.7967,1.7967,1.7966,1.7966,1.7975,1.7976,1.7977,0,0,0,0,0,0,0,0,0,0,0,0,0,1.7951,1.7941,1.7967,1.7964,1.7963,1.7977,1.7977,1.7977,1.7967,1.7967,1.7966,1.7966,1.7975,1.7976,1.7977,1.7994,0,0,1.798,1.798,0,0,0,0,0,0,0,0,1.7951,1.7952,1.7964,1.7964,1.7964,1.797,1.7971,1.7983,1.7968,1.7966,1.7966,1.7966,1.7974,1.7975,1.7978,1.7994,1.7995,1.798,1.798,1.7981,1.7981,0,0,0,0,0,0,0,1.795,1.7952,1.7971,1.7964,1.7964,1.7962,1.7963,1.7973,1.7973,1.7966,1.7965,1.7967,1.7974,1.7977,1.7978,1.7995,1.798,1.7981,1.7981,1.7982,1.8027,1.8027,0,0,0,0,0,0,1.7949,1.7951,1.797,1.7971,1.7956,1.7963,1.7964,1.7969,1.7973,1.7973,1.7967,1.7966,1.7976,1.7977,1.7979,1.7999,1.7981,1.7982,1.7982,1.8026,1.8027,1.8027,0,0,0,0,0,0,1.7949,1.7951,1.797,1.7961,1.7963,1.7964,1.7969,1.7969,1.7972,1.7974,1.7974,1.797,1.7976,1.7977,1.7991,1.7999,1.7982,1.7983,1.8025,1.8026,1.8027,1.804,0,0,0,0,0,0,1.7948,1.7951,1.7957,1.7961,1.7964,1.7981,1.797,1.797,1.7974,1.7973,1.7977,1.7977,1.7975,1.7989,1.7991,1.8,1.7984,1.8024,1.8026,1.8027,1.8039,1.8041,1.8043,0,0,0,0,0,1.7947,1.796,1.7958,1.796,1.7971,1.7982,1.7983,1.7981,1.7975,1.7981,1.7982,1.7977,1.7998,1.7991,1.7993,1.8002,1.8024,1.8025,1.8027,1.8038,1.8041,1.8043,0,0,0,0,0,0,1.7956,1.796,1.7958,1.7972,1.7977,1.798,1.7988,1.7985,1.7991,1.7989,1.7987,1.7988,1.8002,1.8003,1.7995,1.8019,1.801,1.8012,1.8017,1.802,1.8023,1.8021,1.7984,0,0,0,0,0,1.796,1.7969,1.7972,1.7984,1.7987,1.7987,1.7992,1.799,1.7995,1.7996,1.7998,1.8003,1.8011,1.8016,1.8023,1.8039,1.804,1.8047,1.8049,1.8051,1.8053,1.8062,1.8065,1.8032,1.8032,1.8032,0,0,1.7968,1.7971,1.7976,1.7986,1.799,1.7998,1.7989,1.7998,1.8005,1.7998,1.801,1.8012,1.8017,1.8032,1.8039,1.8034,1.8062,1.8053,1.8055,1.8055,1.8064,1.8067,1.807,1.8033,1.8033,1.8033,0,0,1.7986,1.799,1.8001,1.8005,1.8011,1.8011,1.8014,1.8018,1.8019,1.8032,1.8027,1.8035,1.8049,1.8053,1.8056,1.8079,1.8074,1.8081,1.8093,1.8102,1.8105,1.8107,1.8115,1.8117,1.8083,1.8083,1.8083,0,1.7995,1.8008,1.8007,1.8017,1.8022,1.8017,1.8028,1.8032,1.804,1.8043,1.8038,1.8056,1.8059,1.8075,1.808,1.8084,1.8087,1.808,1.8104,1.8107,1.8109,1.8116,1.8119,1.8084,1.8084,1.8084,1.8084,0,1.8018,1.8028,1.8036,1.8044,1.805,1.806,1.8061,1.8067,1.8066,1.8067,1.8081,1.8085,1.8093,1.8097,1.8095,1.8113,1.811,1.8105,1.8095,1.8113,1.812,1.8122,1.8085,1.8085,1.8084,1.8084,0,0,1.804,1.805,1.8052,1.8057,1.8063,1.8071,1.8082,1.809,1.8096,1.8102,1.8111,1.8123,1.8119,1.8124,1.8123,1.8131,1.8148,1.8125,1.8125,1.8128,1.8168,1.8171,1.8175,1.8146,1.8146,1.8147,1.8168,0,1.8059,1.8078,1.8078,1.8096,1.8104,1.8101,1.8111,1.8116,1.8119,1.8126,1.8129,1.8137,1.8131,1.8134,1.8142,1.8144,1.8156,1.8143,1.8154,1.8154,1.8152,1.8178,1.8181,1.8201,1.817,1.8171,1.8171,0,1.8082,1.8089,1.8108,1.8115,1.8119,1.8127,1.8136,1.8144,1.815,1.8151,1.8157,1.8155,1.8167,1.8158,1.8175,1.8166,1.8171,1.8173,1.8173,1.8173,1.8163,1.8178,1.8207,1.8209,1.8175,1.8175,1.8175,0,1.8096,1.8111,1.8124,1.8128,1.8136,1.8142,1.8146,1.8152,1.8158,1.8166,1.8169,1.8178,1.8183,1.819,1.8191,1.8185,1.8208,1.8199,1.8208,1.8208,1.8212,1.8212,1.8241,1.8217,1.8217,1.8217,1.8217,0,1.8115,1.8127,1.8131,1.8138,1.8152,1.8153,1.8166,1.8169,1.8175,1.8184,1.8182,1.819,1.8191,1.82,1.8201,1.8214,1.8217,1.8218,1.8218,1.8217,1.8217,1.8219,1.8218,1.8218,1.8218,1.8217,1.8217,0,1.8132,1.8135,1.8149,1.8157,1.8159,1.8168,1.8175,1.8183,1.8186,1.8197,1.82,1.8204,1.8214,1.8216,1.8228,1.8229,1.8245,1.8244,1.8243,1.8242,1.8252,1.8251,1.8283,1.8287,1.8261,1.8261,1.8261,0,1.8144,1.8153,1.8162,1.8168,1.8172,1.8182,1.8188,1.819,1.8196,1.8205,1.8212,1.8223,1.8231,1.8248,1.8252,1.8262,1.826,1.8271,1.8262,1.8261,1.826,1.8259,1.826,1.8273,1.8273,1.8273,1.8273,0,1.8164,1.8166,1.8175,1.8185,1.8192,1.82,1.8208,1.8213,1.8216,1.8223,1.8234,1.8241,1.8254,1.8264,1.8275,1.8279,1.8276,1.8277,1.8279,1.8278,1.8277,1.8277,1.8247,1.8275,1.8275,1.8275,1.8275,1.8275,1.8178,1.8186,1.8194,1.8205,1.8211,1.8218,1.8226,1.8231,1.824,1.8251,1.8252,1.8264,1.8272,1.8285,1.829,1.83,1.8296,1.83,1.8301,1.8302,1.8302,1.8277,1.8302,1.8302,1.8302,1.8301,1.8301,0,1.8198,1.8204,1.8213,1.8224,1.8233,1.8232,1.824,1.8247,1.8258,1.8266,1.8274,1.8288,1.8298,1.8304,1.8314,1.8321,1.832,1.8324,1.8323,1.8324,1.8305,1.8301,1.8324,1.8324,1.8324,1.8324,1.8324,1.8324,1.8209,1.8223,1.8226,1.8243,1.8248,1.8261,1.8266,1.8273,1.8279,1.8294,1.8303,1.8307,1.8314,1.8325,1.8335,1.8337,1.834,1.8344,1.8345,1.8327,1.8325,1.8323,1.8319,1.8345,1.8345,1.8363,1.8363,1.8363]},{"header":{"parameterUnit":"m.s-1","parameterCategory":1,"la1":30.2991,"la2":30.254,"lo1":-89.0895,"lo2":-89.0444,"dy":0.0017,"dx":0.0017,"nx":28,"ny":28,"refTime":"2025-12-29T09:00:00:Z","depth":0,"parameterNumber":3,"parameterNumberName":"V-component_of_WINDS"},"data":[0,0,0,0,0,0,0,0,0,0,0,0,0,0,0,0,0,0,0,0,0,0,0,0,0,0,0,0,0,0,0,0,0,0,0,0,0,0,0,0,0,0,0,0,0,0,0,0,0,0,0,0,0,0,0,0,0,0,-8.7736,-8.7738,0,-8.7932,-8.7935,-8.7937,-8.7853,-8.7848,-8.7844,-8.7839,-8.8034,-8.8043,-8.8053,0,0,0,0,0,0,0,0,0,0,0,0,0,-8.7281,-8.729,-8.7735,-8.7738,-8.774,-8.7932,-8.7935,-8.7937,-8.7854,-8.7848,-8.7842,-8.7837,-8.8031,-8.8042,-8.8054,0,0,0,0,0,0,0,0,0,0,0,0,0,-8.7478,-8.7293,-8.7735,-8.7722,-8.7723,-8.7932,-8.7935,-8.7938,-8.7855,-8.7848,-8.7841,-8.7834,-8.8027,-8.8041,-8.8055,-8.8287,0,0,-8.8099,-8.8106,0,0,0,0,0,0,0,0,-8.7467,-8.7495,-8.7721,-8.7723,-8.7724,-8.7861,-8.7846,-8.8055,-8.7857,-8.7805,-8.7839,-8.7831,-8.7982,-8.7999,-8.8052,-8.8296,-8.8304,-8.8101,-8.8109,-8.8116,-8.812,0,0,0,0,0,0,0,-8.7454,-8.7486,-8.7813,-8.7725,-8.7727,-8.7704,-8.7724,-8.7885,-8.793,-8.7809,-8.7803,-8.7828,-8.7981,-8.8038,-8.8056,-8.8307,-8.81,-8.8113,-8.8122,-8.8128,-8.875,-8.8758,0,0,0,0,0,0,-8.7441,-8.7475,-8.7807,-8.7819,-8.7576,-8.7718,-8.7741,-8.7824,-8.7929,-8.7938,-8.7834,-8.7823,-8.8017,-8.8039,-8.8062,-8.834,-8.8116,-8.8129,-8.8137,-8.8742,-8.8752,-8.876,0,0,0,0,0,0,-8.7431,-8.7471,-8.7799,-8.7646,-8.7686,-8.7734,-8.7828,-8.7832,-8.7889,-8.7948,-8.7954,-8.7884,-8.8012,-8.8042,-8.8232,-8.8346,-8.8136,-8.8149,-8.8733,-8.8745,-8.8756,-8.8898,0,0,0,0,0,0,-8.7419,-8.7468,-8.7558,-8.7648,-8.7694,-8.7968,-8.7835,-8.7841,-8.7915,-8.7903,-8.7997,-8.8005,-8.8009,-8.8211,-8.8246,-8.8362,-8.816,-8.8723,-8.8739,-8.8752,-8.8883,-8.8913,-8.8939,0,0,0,0,0,-8.7403,-8.7588,-8.7563,-8.7603,-8.7808,-8.7974,-8.8,-8.8003,-8.7924,-8.8014,-8.8052,-8.8002,-8.8328,-8.8231,-8.827,-8.8392,-8.8716,-8.8734,-8.8751,-8.8871,-8.8907,-8.8938,0,0,0,0,0,0,-8.7507,-8.76,-8.7573,-8.7794,-8.7877,-8.796,-8.8073,-8.8041,-8.8147,-8.8131,-8.8127,-8.8149,-8.8346,-8.8387,-8.8278,-8.8621,-8.8509,-8.8536,-8.8587,-8.8622,-8.8649,-8.8635,-8.8172,0,0,0,0,0,-8.7557,-8.7686,-8.7759,-8.7947,-8.799,-8.8025,-8.8098,-8.8093,-8.8178,-8.8212,-8.8263,-8.8346,-8.8467,-8.8547,-8.8661,-8.8889,-8.8907,-8.8991,-8.9019,-8.9042,-8.9064,-8.9188,-8.9226,-8.8819,-8.8819,-8.8818,0,0,-8.7659,-8.7725,-8.7807,-8.797,-8.8034,-8.8166,-8.8055,-8.82,-8.8298,-8.8233,-8.8417,-8.8457,-8.8549,-8.876,-8.8854,-8.88,-8.9181,-8.9064,-8.9082,-8.9093,-8.921,-8.9249,-8.9283,-8.8831,-8.8829,-8.8827,0,0,-8.7913,-8.7977,-8.8141,-8.8208,-8.8307,-8.8329,-8.8369,-8.8457,-8.8483,-8.8667,-8.8622,-8.8736,-8.8945,-8.9013,-8.9074,-8.9356,-8.9314,-8.9393,-8.9537,-8.9658,-8.969,-8.9718,-8.9819,-8.9855,-8.9415,-8.9415,-8.9416,0,-8.8027,-8.8228,-8.8228,-8.8378,-8.8451,-8.8401,-8.8566,-8.863,-8.8761,-8.8811,-8.8749,-8.901,-8.9069,-8.9294,-8.9363,-8.9415,-8.9458,-8.9382,-8.9686,-8.9714,-8.9741,-8.9836,-8.9874,-8.9424,-8.9423,-8.9422,-8.9422,0,-8.8363,-8.8502,-8.8622,-8.8753,-8.8839,-8.8995,-8.9019,-8.9105,-8.9093,-8.9121,-8.9309,-8.9377,-8.9505,-8.9558,-8.9546,-8.9782,-8.9745,-8.9685,-8.9573,-8.9788,-8.9878,-8.9915,-8.9437,-8.9434,-8.9431,-8.9429,0,0,-8.8688,-8.8819,-8.8863,-8.8922,-8.9028,-8.9135,-8.9288,-8.9416,-8.949,-8.9582,-8.971,-8.9888,-8.9833,-8.9903,-8.9898,-9.0004,-9.0223,-8.993,-8.9932,-8.9982,-9.0487,-9.0532,-9.0575,-9.0196,-9.0203,-9.0208,-9.0479,0,-8.8951,-8.9223,-8.9229,-8.9478,-8.9606,-8.9561,-8.9695,-8.9774,-8.9804,-8.9916,-8.9947,-9.0074,-8.9992,-9.0034,-9.0137,-9.0174,-9.0324,-9.0155,-9.0313,-9.0319,-9.0292,-9.0622,-9.067,-9.0922,-9.0514,-9.052,-9.0524,0,-8.9294,-8.94,-8.9662,-8.9751,-8.9805,-8.9925,-9.0043,-9.0151,-9.0238,-9.0253,-9.0333,-9.0312,-9.0467,-9.035,-9.0563,-9.0448,-9.0513,-9.0541,-9.0551,-9.0566,-9.0435,-9.0645,-9.1003,-9.1041,-9.058,-9.0575,-9.0571,0,-8.9506,-8.9713,-8.9897,-8.9949,-9.0057,-9.0143,-9.0191,-9.0272,-9.0348,-9.045,-9.05,-9.0617,-9.0682,-9.0772,-9.0783,-9.0698,-9.0998,-9.0882,-9.1013,-9.1013,-9.1078,-9.1074,-9.1451,-9.112,-9.1119,-9.1119,-9.1118,0,-8.9799,-8.9961,-8.9994,-9.0108,-9.0288,-9.0292,-9.047,-9.0511,-9.0584,-9.0703,-9.0669,-9.0781,-9.0789,-9.0904,-9.0913,-9.1088,-9.1117,-9.1132,-9.1133,-9.1136,-9.1134,-9.1178,-9.1161,-9.1129,-9.1126,-9.1124,-9.1123,0,-9.0066,-9.0095,-9.0293,-9.0379,-9.0405,-9.0534,-9.0607,-9.0714,-9.0741,-9.0892,-9.0928,-9.097,-9.1103,-9.1124,-9.1279,-9.1285,-9.1495,-9.1477,-9.1467,-9.1464,-9.1595,-9.1582,-9.2014,-9.2071,-9.1702,-9.1705,-9.1708,0,-9.0251,-9.0376,-9.0476,-9.0555,-9.0609,-9.0735,-9.0814,-9.0822,-9.0905,-9.1015,-9.1109,-9.124,-9.1344,-9.1559,-9.1602,-9.1721,-9.1706,-9.1849,-9.1723,-9.1722,-9.1708,-9.1701,-9.1713,-9.1873,-9.1877,-9.188,-9.1883,0,-9.0577,-9.0586,-9.0701,-9.0823,-9.0919,-9.1014,-9.1104,-9.1169,-9.1189,-9.1284,-9.1421,-9.1503,-9.1663,-9.1792,-9.191,-9.1957,-9.1924,-9.1922,-9.1959,-9.1963,-9.1952,-9.196,-9.1533,-9.1912,-9.1909,-9.1907,-9.1905,-9.1904,-9.0809,-9.0918,-9.1007,-9.1137,-9.1206,-9.1291,-9.1397,-9.1438,-9.1553,-9.1686,-9.1683,-9.1834,-9.1918,-9.2074,-9.2129,-9.2246,-9.2199,-9.2252,-9.2265,-9.2278,-9.2291,-9.1934,-9.2267,-9.2266,-9.2265,-9.2264,-9.2264,0,-9.1134,-9.1189,-9.1309,-9.1437,-9.1539,-9.1501,-9.1599,-9.1686,-9.182,-9.1902,-9.2007,-9.2165,-9.229,-9.2344,-9.2467,-9.255,-9.2538,-9.2582,-9.2576,-9.2587,-9.2326,-9.2282,-9.259,-9.259,-9.259,-9.259,-9.259,-9.259,-9.1315,-9.1497,-9.1516,-9.1732,-9.1785,-9.1935,-9.1994,-9.2071,-9.2137,-9.2316,-9.2421,-9.2456,-9.2527,-9.2655,-9.2768,-9.278,-9.2827,-9.2879,-9.2884,-9.2639,-9.2606,-9.2574,-9.2533,-9.2889,-9.2889,-9.3136,-9.3138,-9.314]}]]